Voltar ao catálogo

STARLINK-34909

AtivoComunicaçõesSSO
NORAD 65401·PAYLOAD·🇺🇸 United States

Lançado Aug 30, 2025 de Vandenberg Space Force Base

Loading…

Próximas Passagens (próximas 24 horas)

TLE

AtualizadoSource: CelesTrak SupGP

Época: Sep 14, 2026, 22:47 UTC

1 65401C 25191Y   26257.94979167  .00053679  00000+0  16650-2 0  2574
2 65401  97.2846 124.1084 0002409  89.7118 200.6323 15.33435818    11

Acompanhe STARLINK-34909 em tempo real com AllMySat

Download on the App Store